Location: Cheching
(60.0667°N, 164.2167°W)
Time: 00:38:12
(UTC+00:00)

DX 1 - Pass Details

Date: 28 January 2021
Orbit: 618 x 631 km, 98.5° (Epoch: 07 March)

Event Time Altitude Azimuth Distance (km) Brightness Sun altitude
Exits shadow 04:36:33 14° 99° (E) 1,754 ? -11.6°
Drops below altitude 10° 04:38:03 10° 119° (ESE) 1,990 ? -11.8°
Sets 04:41:09 0° 144° (SE) 2,890 ? -12.2°
